VTK601 UUEE-UHMM

Flight info

Callsign VTK601
Flight time 6h 38m
Altitude 35000
Route RILPO3J RILPO T753 NARUD DCT ULKAM M131 LABAR T411 OLEGA A812 GIMOS/K0913F370 A812 LANAR LANAR5J
Aircraft B77W/H-SDE1E2E3FGHIJ2J3J4J5M1RWXY/LB1D1

Departure

Time 2026-05-05 05:11
Airport Sheremetyevo International Airport (UUEE)

Arrival

Time 2026-05-05 11:49
Airport Sokol Airport (UHMM)
Time Latitude Longitude Altitude Speed Heading
2026-05-05 04:58 55.98019 37.41844 644 ft 0 kts 255°
2026-05-05 05:04 55.98021 37.41854 644 ft 2 kts 255°
2026-05-05 05:04 55.98025 37.41882 644 ft 2 kts 255°
2026-05-05 05:04 55.98029 37.41910 644 ft 2 kts 255°
2026-05-05 05:04 55.98033 37.41940 649 ft 4 kts 246°
2026-05-05 05:05 55.98052 37.41970 648 ft 4 kts 184°
2026-05-05 05:05 55.98075 37.41963 645 ft 0 kts 167°
2026-05-05 05:06 55.98049 37.41974 637 ft 10 kts 168°
2026-05-05 05:06 55.97972 37.42005 646 ft 12 kts 166°
2026-05-05 05:06 55.97894 37.42041 648 ft 12 kts 165°
2026-05-05 05:06 55.97816 37.42078 646 ft 12 kts 165°
2026-05-05 05:07 55.97739 37.42117 647 ft 12 kts 158°
2026-05-05 05:07 55.97698 37.42232 644 ft 12 kts 92°
2026-05-05 05:07 55.97714 37.42373 645 ft 12 kts 75°
2026-05-05 05:07 55.97734 37.42512 644 ft 12 kts 76°
2026-05-05 05:08 55.97757 37.42672 645 ft 15 kts 75°
2026-05-05 05:08 55.97789 37.42882 643 ft 20 kts 75°
2026-05-05 05:08 55.97828 37.43141 648 ft 24 kts 75°
2026-05-05 05:08 55.97873 37.43439 644 ft 25 kts 75°
2026-05-05 05:09 55.97917 37.43733 648 ft 21 kts 75°
2026-05-05 05:09 55.97933 37.43974 648 ft 19 kts 114°
2026-05-05 05:09 55.97820 37.44049 649 ft 18 kts 204°
2026-05-05 05:09 55.97759 37.43869 646 ft 18 kts 254°
2026-05-05 05:10 55.97697 37.43464 647 ft 64 kts 255°
2026-05-05 05:10 55.97523 37.42297 645 ft 128 kts 255°
2026-05-05 05:10 55.97242 37.40450 657 ft 177 kts 255°
2026-05-05 05:10 55.96890 37.38259 899 ft 193 kts 251°
2026-05-05 05:11 55.96291 37.35978 1240 ft 207 kts 240°
2026-05-05 05:11 55.95488 37.33834 1831 ft 213 kts 236°
2026-05-05 05:11 55.94565 37.31666 2357 ft 225 kts 237°
2026-05-05 05:11 55.93620 37.29386 2839 ft 235 kts 237°
2026-05-05 05:12 55.92659 37.27000 3570 ft 237 kts 238°
2026-05-05 05:12 55.91714 37.24600 4363 ft 236 kts 238°
2026-05-05 05:12 55.90714 37.22259 4985 ft 241 kts 227°
2026-05-05 05:12 55.89222 37.20773 5568 ft 256 kts 198°
2026-05-05 05:13 55.87419 37.20784 6287 ft 267 kts 170°
2026-05-05 05:13 55.85733 37.22320 6795 ft 281 kts 146°
2026-05-05 05:13 55.84440 37.24997 6819 ft 293 kts 116°
2026-05-05 05:13 55.84088 37.28548 6869 ft 296 kts 82°
2026-05-05 05:14 55.84799 37.31980 7221 ft 300 kts 52°
2026-05-05 05:14 55.86094 37.34900 7710 ft 303 kts 47°
2026-05-05 05:14 55.87444 37.37801 8371 ft 304 kts 47°
2026-05-05 05:14 55.88800 37.40703 8849 ft 308 kts 47°
2026-05-05 05:15 55.90184 37.43672 8851 ft 313 kts 47°
2026-05-05 05:15 55.91566 37.46665 8857 ft 311 kts 47°
2026-05-05 05:15 55.92930 37.49635 8849 ft 307 kts 47°
2026-05-05 05:15 55.94287 37.52561 8837 ft 306 kts 45°
2026-05-05 05:16 55.95781 37.55257 9179 ft 306 kts 39°
2026-05-05 05:16 55.97356 37.57839 9751 ft 308 kts 38°
2026-05-05 05:16 55.98954 37.60443 9827 ft 315 kts 39°
2026-05-05 05:16 56.00543 37.63057 9834 ft 313 kts 39°
2026-05-05 05:17 56.02125 37.65692 9832 ft 309 kts 39°
2026-05-05 05:17 56.03689 37.68320 9829 ft 308 kts 39°
2026-05-05 05:17 56.05253 37.70956 9834 ft 310 kts 39°
2026-05-05 05:17 56.06824 37.73607 9835 ft 311 kts 39°
2026-05-05 05:18 56.08398 37.76272 9846 ft 312 kts 40°
2026-05-05 05:18 56.09970 37.78977 9830 ft 315 kts 41°
2026-05-05 05:18 56.11492 37.81821 9828 ft 317 kts 43°
2026-05-05 05:18 56.13004 37.84692 9826 ft 315 kts 40°
2026-05-05 05:19 56.14768 37.86838 9832 ft 302 kts 15°
2026-05-05 05:19 56.16811 37.87561 10001 ft 304 kts 359°
2026-05-05 05:19 56.18990 37.87835 10156 ft 325 kts 359°
2026-05-05 05:19 56.21324 37.88149 10323 ft 348 kts 360°
2026-05-05 05:20 56.23805 37.88503 10514 ft 367 kts
2026-05-05 05:20 56.26393 37.88888 11033 ft 378 kts
2026-05-05 05:20 56.29043 37.89283 11739 ft 385 kts
2026-05-05 05:20 56.31729 37.89648 12599 ft 389 kts 359°
2026-05-05 05:21 56.34445 37.89996 13482 ft 393 kts 359°
2026-05-05 05:21 56.37195 37.90350 14272 ft 398 kts 360°
2026-05-05 05:21 56.39035 37.90589 14747 ft 401 kts 360°
2026-05-05 05:21 56.41836 37.90961 15491 ft 406 kts 360°
2026-05-05 05:22 56.44670 37.91347 16252 ft 411 kts
2026-05-05 05:22 56.47539 37.91738 16994 ft 416 kts
2026-05-05 05:22 56.50438 37.92131 17733 ft 421 kts
2026-05-05 05:22 56.53379 37.92532 18431 ft 426 kts 360°
2026-05-05 05:23 56.56344 37.92937 19084 ft 429 kts 360°
2026-05-05 05:23 56.59333 37.93346 19765 ft 432 kts 360°
2026-05-05 05:23 56.62349 37.93761 20448 ft 436 kts 359°
2026-05-05 05:23 56.65387 37.94178 21083 ft 439 kts 360°
2026-05-05 05:24 56.68415 37.95183 21486 ft 453 kts 16°
2026-05-05 05:24 56.71211 37.98002 21979 ft 470 kts 36°
2026-05-05 05:24 56.73561 38.02172 22536 ft 473 kts 43°
2026-05-05 05:24 56.75863 38.06501 23045 ft 479 kts 43°
2026-05-05 05:25 56.78213 38.10839 23589 ft 483 kts 42°
2026-05-05 05:25 56.80600 38.15180 24106 ft 485 kts 41°
2026-05-05 05:25 56.83012 38.19532 24626 ft 488 kts 41°
2026-05-05 05:25 56.85437 38.23904 25100 ft 492 kts 41°
2026-05-05 05:26 56.87897 38.28314 25535 ft 497 kts 40°
2026-05-05 05:26 56.90466 38.32560 25969 ft 499 kts 38°
2026-05-05 05:26 56.93119 38.36684 26414 ft 502 kts 37°
2026-05-05 05:26 56.95815 38.40787 26861 ft 505 kts 36°
2026-05-05 05:27 56.98523 38.44907 27294 ft 508 kts 37°
2026-05-05 05:27 57.01237 38.49086 27699 ft 512 kts 37°
2026-05-05 05:27 57.06691 38.57626 28496 ft 518 kts 38°
2026-05-05 05:28 57.09434 38.61963 28786 ft 523 kts 38°
2026-05-05 05:28 57.12196 38.66348 29089 ft 526 kts 38°
2026-05-05 05:28 57.14976 38.70771 29431 ft 529 kts 38°
2026-05-05 05:28 57.17754 38.75197 29848 ft 529 kts 38°
2026-05-05 05:29 57.20533 38.79634 30274 ft 527 kts 38°
2026-05-05 05:29 57.23305 38.84063 30700 ft 526 kts 38°
2026-05-05 05:29 57.26069 38.88487 31077 ft 526 kts 38°
2026-05-05 05:29 57.28834 38.92921 31435 ft 526 kts 38°
2026-05-05 05:30 57.31601 38.97366 31708 ft 528 kts 38°
2026-05-05 05:30 57.34374 39.01830 32036 ft 528 kts 38°
2026-05-05 05:30 57.37142 39.06298 32424 ft 527 kts 38°
2026-05-05 05:30 57.39904 39.10769 32728 ft 528 kts 38°
2026-05-05 05:31 57.45467 39.19791 33116 ft 530 kts 38°
2026-05-05 05:31 57.48229 39.24293 33567 ft 527 kts 38°
2026-05-05 05:31 57.50976 39.28771 33975 ft 524 kts 38°
2026-05-05 05:32 57.53710 39.33235 34344 ft 521 kts 38°
2026-05-05 05:32 57.56428 39.37672 34675 ft 519 kts 38°
2026-05-05 05:32 57.61878 39.46594 34769 ft 522 kts 38°
2026-05-05 05:33 57.67315 39.55545 34753 ft 519 kts 38°
2026-05-05 05:33 57.72711 39.64462 34776 ft 516 kts 38°
2026-05-05 05:34 57.78080 39.73373 34749 ft 515 kts 38°
2026-05-05 05:34 57.83433 39.82295 34769 ft 515 kts 38°
2026-05-05 05:35 57.88794 39.91274 34762 ft 517 kts 38°
2026-05-05 05:35 57.94158 40.00344 34761 ft 519 kts 39°
2026-05-05 05:36 57.99533 40.09487 34751 ft 521 kts 39°
2026-05-05 05:36 58.04921 40.18684 34741 ft 523 kts 39°
2026-05-05 05:37 58.10314 40.27925 34740 ft 524 kts 39°
2026-05-05 05:37 58.15701 40.37199 34732 ft 523 kts 39°
2026-05-05 05:38 58.21089 40.46455 34731 ft 523 kts 39°
2026-05-05 05:38 58.26491 40.55690 34729 ft 522 kts 38°
2026-05-05 05:39 58.31878 40.64939 34731 ft 521 kts 39°
2026-05-05 05:39 58.37246 40.74207 34744 ft 521 kts 39°
2026-05-05 05:40 58.42611 40.83513 34730 ft 521 kts 39°
2026-05-05 05:40 58.47964 40.92848 34723 ft 521 kts 39°
2026-05-05 05:41 58.53311 41.02212 34726 ft 521 kts 39°
2026-05-05 05:41 58.58646 41.11593 34715 ft 521 kts 39°
2026-05-05 05:42 58.63981 41.21010 34721 ft 521 kts 39°
2026-05-05 05:42 58.69312 41.30467 34718 ft 522 kts 39°
2026-05-05 05:43 58.74633 41.39944 34710 ft 521 kts 39°
2026-05-05 05:43 58.80166 41.48885 34720 ft 517 kts 32°
2026-05-05 05:44 58.85984 41.57045 34720 ft 517 kts 32°
2026-05-05 05:44 58.91810 41.65222 34706 ft 518 kts 32°
2026-05-05 05:45 58.97610 41.73512 34707 ft 519 kts 33°
2026-05-05 05:45 59.03402 41.81859 34702 ft 519 kts 33°
2026-05-05 05:46 59.09192 41.90240 34723 ft 519 kts 33°
2026-05-05 05:46 59.14979 41.98648 34701 ft 519 kts 33°
2026-05-05 05:47 59.20761 42.07083 34691 ft 518 kts 33°
2026-05-05 05:47 59.26525 42.15538 34692 ft 517 kts 33°
2026-05-05 05:48 59.32279 42.23996 34701 ft 517 kts 33°
2026-05-05 05:48 59.38037 42.32439 34687 ft 516 kts 31°
2026-05-05 05:49 59.44156 42.39669 34692 ft 512 kts 25°
2026-05-05 05:49 59.50384 42.46455 34682 ft 512 kts 24°
2026-05-05 05:50 59.56613 42.53314 34697 ft 514 kts 25°
2026-05-05 05:50 59.62842 42.60286 34677 ft 515 kts 25°
2026-05-05 05:51 59.69064 42.67319 34673 ft 515 kts 25°
2026-05-05 05:51 59.75280 42.74383 34673 ft 515 kts 25°
2026-05-05 05:52 59.81494 42.81460 34670 ft 514 kts 25°
2026-05-05 05:52 59.87703 42.88564 34673 ft 515 kts 26°
2026-05-05 05:53 59.93917 42.95699 34651 ft 516 kts 26°
2026-05-05 05:53 60.00129 43.02868 34649 ft 516 kts 26°
2026-05-05 05:54 60.06337 43.10054 34654 ft 516 kts 26°
2026-05-05 05:54 60.12546 43.17280 34656 ft 516 kts 26°
2026-05-05 05:55 60.18746 43.24534 34648 ft 516 kts 26°
2026-05-05 05:55 60.24960 43.31830 34638 ft 516 kts 26°
2026-05-05 05:56 60.31162 43.39149 34634 ft 517 kts 26°
2026-05-05 05:56 60.37363 43.46493 34638 ft 517 kts 26°
2026-05-05 05:57 60.43558 43.53865 34630 ft 517 kts 26°
2026-05-05 05:57 60.49759 43.61275 34627 ft 517 kts 27°
2026-05-05 05:58 60.55953 43.68714 34626 ft 517 kts 27°
2026-05-05 05:58 60.62145 43.76190 34623 ft 518 kts 27°
2026-05-05 05:59 60.68344 43.83666 34605 ft 517 kts 26°
2026-05-05 05:59 60.74585 43.90976 34606 ft 517 kts 26°
2026-05-05 06:00 60.79777 43.97048 34606 ft 517 kts 26°
2026-05-05 06:00 60.86050 44.04458 34610 ft 517 kts 26°
2026-05-05 06:01 60.92289 44.11875 34616 ft 518 kts 26°
2026-05-05 06:01 60.98527 44.19302 34646 ft 518 kts 26°
2026-05-05 06:02 61.04738 44.26708 34599 ft 519 kts 26°
2026-05-05 06:02 61.10979 44.34176 34596 ft 518 kts 26°
2026-05-05 06:03 61.17255 44.41726 34616 ft 518 kts 26°
2026-05-05 06:03 61.23442 44.49217 34599 ft 519 kts 26°
2026-05-05 06:04 61.29676 44.56798 34592 ft 519 kts 26°
2026-05-05 06:04 61.35927 44.64427 34581 ft 520 kts 27°
2026-05-05 06:05 61.42157 44.72071 34583 ft 520 kts 27°
2026-05-05 06:05 61.48389 44.79755 34582 ft 520 kts 27°
2026-05-05 06:06 61.54634 44.87486 34576 ft 521 kts 27°
2026-05-05 06:06 61.60875 44.95252 34574 ft 522 kts 27°
2026-05-05 06:07 61.67114 45.03051 34569 ft 522 kts 27°
2026-05-05 06:07 61.73361 45.10826 34572 ft 521 kts 26°
2026-05-05 06:08 61.79660 45.18428 34555 ft 521 kts 26°
2026-05-05 06:08 61.85958 45.26026 34594 ft 521 kts 26°
2026-05-05 06:09 61.92261 45.33703 34555 ft 523 kts 26°
2026-05-05 06:09 61.98558 45.41431 34555 ft 523 kts 26°
2026-05-05 06:10 62.04859 45.49209 34547 ft 524 kts 26°
2026-05-05 06:10 62.11156 45.57015 34540 ft 523 kts 26°
2026-05-05 06:11 62.17444 45.64855 34535 ft 523 kts 26°
2026-05-05 06:11 62.23731 45.72729 34537 ft 523 kts 26°
2026-05-05 06:12 62.30005 45.80618 34543 ft 522 kts 26°
2026-05-05 06:12 62.36273 45.88536 34518 ft 522 kts 26°
2026-05-05 06:13 62.42531 45.96489 34520 ft 522 kts 27°
2026-05-05 06:13 62.48778 46.04472 34523 ft 522 kts 27°
2026-05-05 06:14 62.55021 46.12473 34514 ft 522 kts 27°
2026-05-05 06:14 62.61265 46.20542 34509 ft 522 kts 27°
2026-05-05 06:15 62.67488 46.28741 34502 ft 523 kts 27°
2026-05-05 06:15 62.73709 46.36990 34516 ft 525 kts 27°
2026-05-05 06:16 62.79956 46.45304 34505 ft 526 kts 27°
2026-05-05 06:16 62.86204 46.53659 34507 ft 526 kts 27°
2026-05-05 06:17 62.92443 46.62038 34500 ft 526 kts 27°
2026-05-05 06:17 62.98681 46.70452 34509 ft 526 kts 28°
2026-05-05 06:18 63.04917 46.78911 34492 ft 527 kts 28°
2026-05-05 06:18 63.11152 46.87412 34502 ft 526 kts 28°
2026-05-05 06:19 63.17371 46.95916 34492 ft 525 kts 28°
2026-05-05 06:19 63.23565 47.04425 34488 ft 523 kts 28°
2026-05-05 06:20 63.29757 47.12971 34483 ft 522 kts 28°
2026-05-05 06:20 63.35917 47.21521 34489 ft 522 kts 28°
2026-05-05 06:21 63.42078 47.30118 34481 ft 522 kts 28°
2026-05-05 06:21 63.48238 47.38753 34490 ft 525 kts 28°
2026-05-05 06:22 63.54438 47.47493 34485 ft 528 kts 28°
2026-05-05 06:22 63.60661 47.56314 34475 ft 529 kts 28°
2026-05-05 06:23 63.66859 47.65146 34491 ft 526 kts 28°
2026-05-05 06:23 63.73034 47.73976 34478 ft 525 kts 28°
2026-05-05 06:24 63.79200 47.82819 34473 ft 524 kts 28°
2026-05-05 06:24 63.85344 47.91676 34474 ft 524 kts 28°
2026-05-05 06:25 63.91479 48.00564 34471 ft 523 kts 28°
2026-05-05 06:25 63.97605 48.09488 34493 ft 523 kts 28°
2026-05-05 06:26 64.03732 48.18465 34487 ft 524 kts 28°
2026-05-05 06:26 64.09867 48.27502 34474 ft 525 kts 29°
2026-05-05 06:27 64.19082 48.41158 34488 ft 526 kts 29°
2026-05-05 06:28 64.25224 48.50325 34506 ft 527 kts 29°
2026-05-05 06:28 64.31361 48.59540 34489 ft 526 kts 29°
2026-05-05 06:29 64.37488 48.68777 34505 ft 526 kts 29°
2026-05-05 06:29 64.43607 48.78059 34513 ft 526 kts 29°
2026-05-05 06:30 64.49734 48.87393 34498 ft 527 kts 29°
2026-05-05 06:30 64.55854 48.96754 34497 ft 527 kts 29°
2026-05-05 06:31 64.61968 49.06155 34499 ft 526 kts 29°
2026-05-05 06:31 64.68065 49.15583 34502 ft 525 kts 29°
2026-05-05 06:32 64.74143 49.25038 34513 ft 525 kts 29°
2026-05-05 06:32 64.80219 49.34530 34547 ft 524 kts 29°
2026-05-05 06:33 64.86284 49.44051 34517 ft 524 kts 29°
2026-05-05 06:33 64.92338 49.53609 34537 ft 524 kts 29°
2026-05-05 06:34 64.98388 49.63212 34539 ft 524 kts 30°
2026-05-05 06:34 65.04424 49.72839 34554 ft 523 kts 30°
2026-05-05 06:35 65.10451 49.82516 34563 ft 523 kts 29°
2026-05-05 06:35 65.16473 49.92231 34568 ft 523 kts 30°
2026-05-05 06:36 65.22492 50.01998 34570 ft 523 kts 30°
2026-05-05 06:36 65.28498 50.11797 34615 ft 523 kts 30°
2026-05-05 06:37 65.34315 50.22392 34590 ft 527 kts 35°
2026-05-05 06:37 65.39964 50.33616 34616 ft 528 kts 36°
2026-05-05 06:38 65.45638 50.44988 34600 ft 528 kts 36°
2026-05-05 06:38 65.51256 50.56201 34611 ft 527 kts 35°
2026-05-05 06:39 65.55987 50.65651 34607 ft 527 kts 35°
2026-05-05 06:39 65.61631 50.76983 34634 ft 527 kts 36°
2026-05-05 06:40 65.67265 50.88345 34640 ft 527 kts 35°
2026-05-05 06:40 65.72881 50.99749 34635 ft 526 kts 36°
2026-05-05 06:41 65.78482 51.11202 34653 ft 525 kts 36°
2026-05-05 06:41 65.84069 51.22678 34649 ft 525 kts 36°
2026-05-05 06:42 65.89640 51.34199 34677 ft 525 kts 36°
2026-05-05 06:42 65.95202 51.45773 34660 ft 525 kts 36°
2026-05-05 06:43 66.00757 51.57394 34669 ft 524 kts 36°
2026-05-05 06:43 66.06298 51.69055 34668 ft 524 kts 36°
2026-05-05 06:44 66.11836 51.80779 34680 ft 525 kts 36°
2026-05-05 06:44 66.17363 51.92554 34683 ft 524 kts 36°
2026-05-05 06:45 66.22882 52.04382 34689 ft 525 kts 36°
2026-05-05 06:45 66.28397 52.16264 34691 ft 525 kts 36°
2026-05-05 06:46 66.33911 52.28216 34717 ft 526 kts 37°
2026-05-05 06:46 66.39427 52.40251 34724 ft 527 kts 37°
2026-05-05 06:47 66.44936 52.52349 34692 ft 527 kts 37°
2026-05-05 06:47 66.50433 52.64489 34698 ft 526 kts 37°
2026-05-05 06:48 66.55877 52.76592 34690 ft 526 kts 37°
2026-05-05 06:48 66.61339 52.88799 34707 ft 525 kts 37°
2026-05-05 06:49 66.66817 53.01123 34733 ft 525 kts 37°
2026-05-05 06:49 66.72256 53.13434 34718 ft 524 kts 37°
2026-05-05 06:50 66.77669 53.25763 34710 ft 524 kts 37°
2026-05-05 06:50 66.83077 53.38159 34717 ft 524 kts 37°
2026-05-05 06:51 66.88475 53.50607 34719 ft 524 kts 37°
2026-05-05 06:51 66.93863 53.63108 34733 ft 524 kts 37°
2026-05-05 06:52 66.99232 53.75648 34714 ft 523 kts 37°
2026-05-05 06:52 67.04582 53.88218 34728 ft 522 kts 38°
2026-05-05 06:53 67.09916 54.00828 34734 ft 521 kts 38°
2026-05-05 06:53 67.15234 54.13473 34731 ft 521 kts 38°
2026-05-05 06:54 67.20504 54.26100 34736 ft 521 kts 38°
2026-05-05 06:54 67.25835 54.38947 34739 ft 521 kts 38°
2026-05-05 06:55 67.31117 54.51752 34736 ft 521 kts 38°
2026-05-05 06:55 67.36358 54.64538 34742 ft 521 kts 38°
2026-05-05 06:56 67.41628 54.77479 34780 ft 522 kts 39°
2026-05-05 06:56 67.46907 54.90528 34746 ft 523 kts 39°
2026-05-05 06:57 67.52173 55.03625 34740 ft 523 kts 39°
2026-05-05 06:57 67.57432 55.16789 34745 ft 523 kts 39°
2026-05-05 06:58 67.62676 55.30006 34737 ft 523 kts 39°
2026-05-05 06:58 67.67909 55.43277 34768 ft 523 kts 39°
2026-05-05 06:59 67.73140 55.56613 34742 ft 523 kts 39°
2026-05-05 06:59 67.78352 55.70011 34738 ft 523 kts 39°
2026-05-05 07:00 67.83542 55.83455 34738 ft 522 kts 39°
2026-05-05 07:00 67.88716 55.96934 34739 ft 522 kts 39°
2026-05-05 07:01 67.93891 56.10463 34758 ft 522 kts 39°
2026-05-05 07:01 67.99044 56.24081 34742 ft 522 kts 40°
2026-05-05 07:02 68.04180 56.37727 34725 ft 520 kts 40°
2026-05-05 07:02 68.09299 56.51395 34730 ft 520 kts 40°
2026-05-05 07:03 68.14393 56.65123 34731 ft 519 kts 40°
2026-05-05 07:03 68.19479 56.78894 34733 ft 519 kts 40°
2026-05-05 07:04 68.24550 56.92728 34732 ft 518 kts 40°
2026-05-05 07:04 68.29602 57.06587 34729 ft 518 kts 40°
2026-05-05 07:05 68.34636 57.20503 34724 ft 517 kts 41°
2026-05-05 07:05 68.39651 57.34467 34724 ft 517 kts 41°
2026-05-05 07:06 68.44659 57.48487 34739 ft 518 kts 41°
2026-05-05 07:06 68.49663 57.62606 34722 ft 518 kts 41°
2026-05-05 07:07 68.54654 57.76791 34713 ft 518 kts 41°
2026-05-05 07:07 68.59638 57.91035 34714 ft 518 kts 42°
2026-05-05 07:08 68.64607 58.05344 34710 ft 518 kts 42°
2026-05-05 07:08 68.69565 58.19718 34709 ft 518 kts 42°
2026-05-05 07:09 68.74510 58.34148 34705 ft 518 kts 42°
2026-05-05 07:09 68.79439 58.48649 34708 ft 518 kts 42°
2026-05-05 07:10 68.84356 58.63206 34704 ft 518 kts 43°
2026-05-05 07:10 68.89263 58.77830 34727 ft 518 kts 43°
2026-05-05 07:11 68.94165 58.92541 34702 ft 519 kts 43°
2026-05-05 07:11 68.99050 59.07310 34699 ft 518 kts 43°
2026-05-05 07:12 69.03921 59.22139 34691 ft 518 kts 43°
2026-05-05 07:12 69.08774 59.37015 34696 ft 518 kts 43°
2026-05-05 07:13 69.13615 59.51966 34712 ft 518 kts 44°
2026-05-05 07:13 69.18444 59.66979 34694 ft 518 kts 44°
2026-05-05 07:14 69.23258 59.82066 34678 ft 518 kts 44°
2026-05-05 07:14 69.28064 59.97225 34671 ft 518 kts 44°
2026-05-05 07:15 69.32856 60.12455 34669 ft 518 kts 44°
2026-05-05 07:15 69.37631 60.27743 34700 ft 519 kts 44°
2026-05-05 07:16 69.42409 60.43141 34673 ft 519 kts 45°
2026-05-05 07:16 69.47142 60.58509 34658 ft 520 kts 45°
2026-05-05 07:17 69.51893 60.74059 34670 ft 520 kts 45°
2026-05-05 07:17 69.56633 60.89677 34647 ft 520 kts 45°
2026-05-05 07:18 69.61358 61.05363 34674 ft 520 kts 45°
2026-05-05 07:18 69.66068 61.21121 34635 ft 520 kts 46°
2026-05-05 07:19 69.70761 61.36940 34632 ft 519 kts 46°
2026-05-05 07:19 69.75439 61.52803 34620 ft 518 kts 46°
2026-05-05 07:20 69.80136 61.68581 34623 ft 517 kts 45°
2026-05-05 07:20 69.84880 61.84229 34640 ft 517 kts 45°
2026-05-05 07:21 69.88806 61.97311 34619 ft 517 kts 45°
2026-05-05 07:21 69.93505 62.13135 34619 ft 517 kts 46°
2026-05-05 07:22 69.98214 62.28981 34597 ft 517 kts 45°
2026-05-05 07:22 70.02933 62.44855 34595 ft 517 kts 45°
2026-05-05 07:23 70.07640 62.60818 34596 ft 518 kts 46°
2026-05-05 07:23 70.12294 62.76748 34602 ft 517 kts 46°
2026-05-05 07:24 70.16966 62.92864 34588 ft 518 kts 46°
2026-05-05 07:24 70.21625 63.09063 34592 ft 518 kts 46°
2026-05-05 07:25 70.26271 63.25350 34585 ft 518 kts 47°
2026-05-05 07:25 70.30903 63.41697 34580 ft 518 kts 47°
2026-05-05 07:26 70.35524 63.58140 34572 ft 518 kts 47°
2026-05-05 07:26 70.40120 63.74623 34567 ft 517 kts 48°
2026-05-05 07:27 70.44692 63.91143 34569 ft 516 kts 48°
2026-05-05 07:27 70.49240 64.07702 34571 ft 515 kts 48°
2026-05-05 07:28 70.53765 64.24301 34565 ft 514 kts 48°
2026-05-05 07:28 70.58240 64.40854 34571 ft 514 kts 49°
2026-05-05 07:29 70.62728 64.57596 34562 ft 514 kts 49°
2026-05-05 07:29 70.67205 64.74413 34556 ft 514 kts 49°
2026-05-05 07:30 70.71664 64.91300 34554 ft 514 kts 49°
2026-05-05 07:30 70.78332 65.16809 34575 ft 515 kts 50°
2026-05-05 07:31 70.82760 65.33913 34546 ft 516 kts 50°
2026-05-05 07:31 70.87187 65.51153 34558 ft 516 kts 50°
2026-05-05 07:32 70.91564 65.68335 34558 ft 517 kts 50°
2026-05-05 07:32 70.95525 65.86731 34555 ft 519 kts 59°
2026-05-05 07:33 70.98922 66.06259 34547 ft 520 kts 61°
2026-05-05 07:33 71.02265 66.25891 34552 ft 518 kts 60°
2026-05-05 07:34 71.05619 66.45467 34550 ft 517 kts 60°
2026-05-05 07:34 71.08972 66.65033 34553 ft 516 kts 60°
2026-05-05 07:35 71.12310 66.84645 34548 ft 516 kts 61°
2026-05-05 07:35 71.15618 67.04326 34563 ft 516 kts 61°
2026-05-05 07:36 71.18907 67.24080 34556 ft 516 kts 62°
2026-05-05 07:36 71.22178 67.43920 34549 ft 517 kts 62°
2026-05-05 07:37 71.25429 67.63831 34556 ft 517 kts 62°
2026-05-05 07:37 71.28663 67.83836 34553 ft 518 kts 62°
2026-05-05 07:38 71.31874 68.03896 34565 ft 517 kts 62°
2026-05-05 07:38 71.35064 68.24035 34556 ft 517 kts 63°
2026-05-05 07:39 71.38233 68.44216 34573 ft 516 kts 63°
2026-05-05 07:39 71.41375 68.64444 34561 ft 516 kts 63°
2026-05-05 07:40 71.44491 68.84694 34550 ft 514 kts 63°
2026-05-05 07:40 71.47576 69.04968 34557 ft 514 kts 64°
2026-05-05 07:41 71.50634 69.25294 34555 ft 513 kts 64°
2026-05-05 07:41 71.53667 69.45636 34554 ft 512 kts 64°
2026-05-05 07:42 71.56681 69.66017 34559 ft 512 kts 64°
2026-05-05 07:42 71.59669 69.86488 34558 ft 512 kts 64°
2026-05-05 07:43 71.62632 70.07016 34556 ft 513 kts 65°
2026-05-05 07:43 71.65580 70.27630 34559 ft 513 kts 65°
2026-05-05 07:44 71.68508 70.48331 34555 ft 514 kts 65°
2026-05-05 07:44 71.71417 70.69110 34552 ft 514 kts 65°
2026-05-05 07:45 71.74302 70.89953 34549 ft 514 kts 66°
2026-05-05 07:45 71.77166 71.10842 34556 ft 514 kts 66°
2026-05-05 07:46 71.80005 71.31806 34555 ft 514 kts 66°
2026-05-05 07:46 71.82817 71.52797 34553 ft 513 kts 67°
2026-05-05 07:47 71.85603 71.73835 34558 ft 512 kts 67°
2026-05-05 07:47 71.88366 71.94926 34561 ft 512 kts 67°
2026-05-05 07:48 71.91103 72.16071 34562 ft 512 kts 67°
2026-05-05 07:48 71.93825 72.37303 34557 ft 513 kts 68°
2026-05-05 07:49 71.96518 72.58583 34571 ft 513 kts 68°
2026-05-05 07:49 71.99191 72.79938 34570 ft 512 kts 68°
2026-05-05 07:50 72.01837 73.01337 34579 ft 512 kts 68°
2026-05-05 07:50 72.04456 73.22796 34578 ft 513 kts 69°
2026-05-05 07:51 72.07061 73.44330 34578 ft 512 kts 69°
2026-05-05 07:51 72.09639 73.65907 34579 ft 512 kts 69°
2026-05-05 07:52 72.12173 73.87393 34581 ft 512 kts 69°
2026-05-05 07:52 72.14699 74.09069 34582 ft 512 kts 70°
2026-05-05 07:53 72.17199 74.30798 34580 ft 512 kts 70°
2026-05-05 07:53 72.19672 74.52578 34578 ft 511 kts 70°
2026-05-05 07:54 72.22124 74.74413 34589 ft 511 kts 70°
2026-05-05 07:54 72.24551 74.96273 34581 ft 511 kts 71°
2026-05-05 07:55 72.26952 75.18216 34580 ft 511 kts 71°
2026-05-05 07:55 72.29329 75.40173 34584 ft 510 kts 71°
2026-05-05 07:56 72.31674 75.62184 34576 ft 511 kts 71°
2026-05-05 07:56 72.33978 75.84132 34580 ft 511 kts 71°
2026-05-05 07:57 72.36278 76.06284 34576 ft 511 kts 72°
2026-05-05 07:57 72.38556 76.28523 34583 ft 512 kts 72°
2026-05-05 07:58 72.40811 76.50836 34582 ft 512 kts 72°
2026-05-05 07:58 72.43041 76.73210 34586 ft 512 kts 72°
2026-05-05 07:59 72.45244 76.95610 34586 ft 512 kts 72°
2026-05-05 07:59 72.47423 77.18075 34585 ft 511 kts 73°
2026-05-05 08:00 72.49576 77.40592 34586 ft 511 kts 73°
2026-05-05 08:00 72.51700 77.63136 34589 ft 511 kts 73°
2026-05-05 08:01 72.53801 77.85746 34585 ft 511 kts 73°
2026-05-05 08:01 72.55860 78.08244 34586 ft 511 kts 74°
2026-05-05 08:02 72.57908 78.30954 34586 ft 511 kts 74°
2026-05-05 08:02 72.59932 78.53722 34587 ft 511 kts 74°
2026-05-05 08:03 72.61929 78.76534 34589 ft 511 kts 75°
2026-05-05 08:03 72.63901 78.99400 34578 ft 511 kts 75°
2026-05-05 08:04 72.65845 79.22306 34591 ft 511 kts 75°
2026-05-05 08:04 72.67763 79.45271 34600 ft 511 kts 75°
2026-05-05 08:05 72.69655 79.68265 34594 ft 510 kts 75°
2026-05-05 08:05 72.71519 79.91292 34590 ft 509 kts 76°
2026-05-05 08:06 72.73344 80.14156 34573 ft 509 kts 76°
2026-05-05 08:06 72.75150 80.37201 34588 ft 509 kts 76°
2026-05-05 08:07 72.76929 80.60319 34591 ft 509 kts 76°
2026-05-05 08:07 72.78682 80.83476 34593 ft 510 kts 77°
2026-05-05 08:08 72.80410 81.06700 34589 ft 510 kts 77°
2026-05-05 08:08 72.82118 81.29995 34589 ft 510 kts 77°
2026-05-05 08:09 72.83514 81.49403 34594 ft 510 kts 77°
2026-05-05 08:09 72.85170 81.72776 34600 ft 511 kts 78°
2026-05-05 08:10 72.86801 81.96234 34599 ft 511 kts 78°
2026-05-05 08:10 72.88404 82.19722 34591 ft 511 kts 78°
2026-05-05 08:11 72.89982 82.43253 34587 ft 511 kts 78°
2026-05-05 08:11 72.91532 82.66851 34585 ft 511 kts 79°
2026-05-05 08:12 72.93055 82.90487 34589 ft 512 kts 79°
2026-05-05 08:12 72.94551 83.14178 34588 ft 512 kts 79°
2026-05-05 08:13 72.96022 83.37932 34590 ft 512 kts 79°
2026-05-05 08:13 72.97465 83.61704 34587 ft 512 kts 79°
2026-05-05 08:14 72.98879 83.85503 34575 ft 511 kts 80°
2026-05-05 08:14 73.00262 84.09313 34588 ft 511 kts 80°
2026-05-05 08:15 73.01618 84.33178 34587 ft 511 kts 80°
2026-05-05 08:15 73.02948 84.57085 34588 ft 511 kts 81°
2026-05-05 08:16 73.04241 84.80847 34586 ft 511 kts 81°
2026-05-05 08:16 73.05516 85.04828 34575 ft 512 kts 81°
2026-05-05 08:17 73.06765 85.28908 34588 ft 512 kts 81°
2026-05-05 08:17 73.07985 85.53010 34590 ft 512 kts 81°
2026-05-05 08:18 73.09177 85.77122 34582 ft 512 kts 82°
2026-05-05 08:18 73.10341 86.01280 34592 ft 512 kts 82°
2026-05-05 08:19 73.11477 86.25473 34576 ft 512 kts 82°
2026-05-05 08:19 73.12584 86.49709 34588 ft 512 kts 82°
2026-05-05 08:20 73.13662 86.73958 34591 ft 512 kts 83°
2026-05-05 08:20 73.14711 86.98239 34592 ft 513 kts 83°
2026-05-05 08:21 73.15734 87.22565 34590 ft 513 kts 83°
2026-05-05 08:21 73.16728 87.46938 34594 ft 513 kts 83°
2026-05-05 08:22 73.17693 87.71336 34591 ft 512 kts 83°
2026-05-05 08:22 73.18629 87.95750 34597 ft 512 kts 84°
2026-05-05 08:23 73.19537 88.20197 34600 ft 513 kts 84°
2026-05-05 08:23 73.20415 88.44667 34599 ft 513 kts 84°
2026-05-05 08:24 73.21265 88.69151 34603 ft 513 kts 84°
2026-05-05 08:24 73.22090 88.93693 34601 ft 514 kts 84°
2026-05-05 08:25 73.22859 89.18312 34602 ft 513 kts 87°
2026-05-05 08:25 73.23198 89.42769 34612 ft 512 kts 89°
2026-05-05 08:26 73.23410 89.67445 34602 ft 512 kts 90°
2026-05-05 08:26 73.23609 89.92091 34605 ft 512 kts 90°
2026-05-05 08:27 73.23800 90.16755 34604 ft 512 kts 90°
2026-05-05 08:27 73.23976 90.41431 34611 ft 512 kts 90°
2026-05-05 08:28 73.24123 90.66090 34614 ft 512 kts 90°
2026-05-05 08:28 73.24237 90.90942 34616 ft 512 kts 90°
2026-05-05 08:29 73.24322 91.15621 34618 ft 513 kts 91°
2026-05-05 08:30 73.24394 91.52517 34615 ft 513 kts 91°
2026-05-05 08:30 73.24405 91.77230 34621 ft 513 kts 91°
2026-05-05 08:31 73.24386 92.01976 34624 ft 513 kts 91°
2026-05-05 08:31 73.24337 92.26739 34628 ft 513 kts 92°
2026-05-05 08:32 73.24260 92.51483 34625 ft 513 kts 92°
2026-05-05 08:32 73.24152 92.76202 34627 ft 513 kts 92°
2026-05-05 08:33 73.24017 93.00925 34634 ft 513 kts 92°
2026-05-05 08:33 73.23853 93.25651 34639 ft 514 kts 93°
2026-05-05 08:34 73.23655 93.50416 34640 ft 514 kts 93°
2026-05-05 08:34 73.23430 93.75175 34648 ft 514 kts 93°
2026-05-05 08:35 73.23176 93.99942 34640 ft 514 kts 93°
2026-05-05 08:35 73.22893 94.24659 34655 ft 514 kts 94°
2026-05-05 08:36 73.22578 94.49379 34656 ft 514 kts 94°
2026-05-05 08:36 73.22235 94.74088 34661 ft 514 kts 94°
2026-05-05 08:37 73.21863 94.98784 34663 ft 514 kts 94°
2026-05-05 08:37 73.21461 95.23462 34658 ft 514 kts 95°
2026-05-05 08:38 73.21033 95.48118 34669 ft 514 kts 95°
2026-05-05 08:38 73.20573 95.72793 34672 ft 514 kts 95°
2026-05-05 08:39 73.20078 95.97506 34671 ft 515 kts 95°
2026-05-05 08:39 73.19558 96.22172 34675 ft 515 kts 95°
2026-05-05 08:40 73.19010 96.46816 34667 ft 515 kts 96°
2026-05-05 08:40 73.18431 96.71485 34677 ft 515 kts 96°
2026-05-05 08:41 73.17827 96.95981 34678 ft 515 kts 96°
2026-05-05 08:41 73.17189 97.20596 34688 ft 515 kts 96°
2026-05-05 08:42 73.16521 97.45204 34689 ft 515 kts 97°
2026-05-05 08:42 73.15826 97.69796 34701 ft 515 kts 96°
2026-05-05 08:43 73.15103 97.94341 34696 ft 514 kts 97°
2026-05-05 08:43 73.14347 98.18838 34702 ft 513 kts 97°
2026-05-05 08:44 73.13565 98.43258 34707 ft 513 kts 97°
2026-05-05 08:44 73.12757 98.67653 34703 ft 512 kts 97°
2026-05-05 08:45 73.11920 98.91988 34697 ft 512 kts 97°
2026-05-05 08:45 73.11053 99.16285 34718 ft 512 kts 98°
2026-05-05 08:46 73.10160 99.40564 34718 ft 512 kts 98°
2026-05-05 08:46 73.09239 99.64815 34725 ft 512 kts 98°
2026-05-05 08:47 73.08287 99.89076 34726 ft 513 kts 98°
2026-05-05 08:47 73.07307 100.13352 34721 ft 513 kts 98°
2026-05-05 08:48 73.06294 100.37591 34738 ft 514 kts 99°
2026-05-05 08:48 73.05251 100.61824 34745 ft 514 kts 99°
2026-05-05 08:49 73.04182 100.86048 34731 ft 514 kts 99°
2026-05-05 08:49 73.03086 101.10227 34755 ft 514 kts 99°
2026-05-05 08:50 73.01960 101.34366 34750 ft 514 kts 100°
2026-05-05 08:50 73.01003 101.54423 34745 ft 514 kts 100°
2026-05-05 08:51 72.99824 101.78510 34751 ft 514 kts 100°
2026-05-05 08:51 72.98617 102.02545 34752 ft 514 kts 100°
2026-05-05 08:52 72.97385 102.26566 34757 ft 514 kts 101°
2026-05-05 08:52 72.96124 102.50554 34756 ft 514 kts 101°
2026-05-05 08:53 72.94832 102.74508 34756 ft 513 kts 101°
2026-05-05 08:53 72.93514 102.98392 34761 ft 513 kts 101°
2026-05-05 08:54 72.92168 103.22267 34756 ft 513 kts 102°
2026-05-05 08:54 72.90802 103.45942 34765 ft 513 kts 102°
2026-05-05 08:55 72.89401 103.69736 34768 ft 513 kts 102°
2026-05-05 08:55 72.87975 103.93460 34765 ft 513 kts 102°
2026-05-05 08:56 72.86520 104.17188 34773 ft 513 kts 102°
2026-05-05 08:56 72.85042 104.40803 34769 ft 512 kts 103°
2026-05-05 08:57 72.83529 104.64384 34771 ft 512 kts 103°
2026-05-05 08:57 72.81995 104.87922 34776 ft 513 kts 103°
2026-05-05 08:58 72.80427 105.11469 34767 ft 513 kts 103°
2026-05-05 08:58 72.78838 105.34929 34776 ft 512 kts 103°
2026-05-05 08:59 72.77219 105.58350 34768 ft 512 kts 103°
2026-05-05 08:59 72.75575 105.81742 34774 ft 512 kts 104°
2026-05-05 09:00 72.73906 106.05061 34774 ft 512 kts 104°
2026-05-05 09:00 72.72206 106.28352 34777 ft 512 kts 104°
2026-05-05 09:01 72.70483 106.51594 34782 ft 513 kts 104°
2026-05-05 09:01 72.68728 106.74822 34769 ft 513 kts 104°
2026-05-05 09:02 72.66948 106.97982 34776 ft 512 kts 105°
2026-05-05 09:02 72.65144 107.21081 34771 ft 512 kts 105°
2026-05-05 09:03 72.63323 107.43992 34775 ft 512 kts 105°
2026-05-05 09:03 72.61472 107.66971 34783 ft 512 kts 105°
2026-05-05 09:04 72.59589 107.89901 34782 ft 512 kts 105°
2026-05-05 09:04 72.57680 108.12789 34784 ft 512 kts 106°
2026-05-05 09:05 72.55745 108.35645 34792 ft 513 kts 106°
2026-05-05 09:05 72.53783 108.58506 34790 ft 513 kts 106°
2026-05-05 09:06 72.51790 108.81324 34796 ft 514 kts 106°
2026-05-05 09:06 72.49768 109.04131 34799 ft 515 kts 107°
2026-05-05 09:07 72.47720 109.26904 34804 ft 515 kts 107°
2026-05-05 09:07 72.45642 109.49611 34807 ft 515 kts 107°
2026-05-05 09:08 72.43537 109.72329 34814 ft 515 kts 107°
2026-05-05 09:08 72.41404 109.94990 34812 ft 515 kts 107°
2026-05-05 09:09 72.39266 110.17408 34817 ft 515 kts 107°
2026-05-05 09:09 72.37087 110.39949 34825 ft 515 kts 108°
2026-05-05 09:10 72.34883 110.62415 34824 ft 515 kts 108°
2026-05-05 09:10 72.32652 110.84813 34833 ft 515 kts 108°
2026-05-05 09:11 72.30397 111.07187 34842 ft 515 kts 108°
2026-05-05 09:11 72.28110 111.29531 34831 ft 516 kts 108°
2026-05-05 09:12 72.25803 111.51793 34842 ft 515 kts 108°
2026-05-05 09:12 72.23471 111.74005 34842 ft 516 kts 109°
2026-05-05 09:13 72.21113 111.96170 34840 ft 516 kts 109°
2026-05-05 09:13 72.18735 112.18279 34854 ft 515 kts 109°
2026-05-05 09:14 72.16338 112.40320 34855 ft 515 kts 109°
2026-05-05 09:14 72.13939 112.62273 34850 ft 514 kts 109°
2026-05-05 09:15 72.11523 112.84161 34860 ft 514 kts 109°
2026-05-05 09:15 72.09081 113.05997 34870 ft 514 kts 109°
2026-05-05 09:16 72.06613 113.27760 34868 ft 514 kts 109°
2026-05-05 09:16 72.04109 113.49576 35240 ft 516 kts 110°
2026-05-05 09:16 72.02847 113.60469 35596 ft 514 kts 110°
2026-05-05 09:17 72.01586 113.71296 35971 ft 512 kts 110°
2026-05-05 09:17 72.00327 113.82049 36315 ft 511 kts 110°
2026-05-05 09:17 71.99064 113.92776 36621 ft 510 kts 110°
2026-05-05 09:17 71.97791 114.03506 36804 ft 512 kts 110°
2026-05-05 09:18 71.96507 114.14239 36827 ft 514 kts 111°
2026-05-05 09:18 71.93891 114.35615 36876 ft 511 kts 111°
2026-05-05 09:19 71.91266 114.56668 36878 ft 508 kts 111°
2026-05-05 09:19 71.88620 114.77693 36874 ft 507 kts 111°
2026-05-05 09:20 71.85957 114.98665 36877 ft 506 kts 111°
2026-05-05 09:20 71.83273 115.19566 36878 ft 507 kts 112°
2026-05-05 09:21 71.80569 115.40401 36876 ft 507 kts 112°
2026-05-05 09:21 71.77836 115.61228 36886 ft 508 kts 112°
2026-05-05 09:22 71.75071 115.82054 36885 ft 510 kts 112°
2026-05-05 09:22 71.72279 116.02850 36883 ft 511 kts 112°
2026-05-05 09:23 71.69460 116.23616 36873 ft 511 kts 112°
2026-05-05 09:23 71.66616 116.44353 36881 ft 512 kts 112°
2026-05-05 09:24 71.63748 116.65033 36877 ft 512 kts 113°
2026-05-05 09:24 71.60861 116.85622 36881 ft 511 kts 113°
2026-05-05 09:25 71.57955 117.06136 36877 ft 511 kts 113°
2026-05-05 09:25 71.55030 117.26584 36882 ft 510 kts 113°
2026-05-05 09:26 71.52088 117.46939 36883 ft 509 kts 114°
2026-05-05 09:26 71.49125 117.67178 36881 ft 509 kts 114°
2026-05-05 09:27 71.46137 117.87375 36881 ft 508 kts 114°
2026-05-05 09:27 71.43140 118.07464 36888 ft 508 kts 114°
2026-05-05 09:28 71.40118 118.27519 36890 ft 508 kts 114°
2026-05-05 09:28 71.37079 118.47495 36894 ft 508 kts 115°
2026-05-05 09:29 71.34036 118.67277 36889 ft 509 kts 115°
2026-05-05 09:29 71.30951 118.87138 36892 ft 509 kts 115°
2026-05-05 09:30 71.27848 119.06936 36893 ft 509 kts 115°
2026-05-05 09:30 71.24719 119.26708 36897 ft 509 kts 115°
2026-05-05 09:31 71.21570 119.46412 36899 ft 509 kts 115°
2026-05-05 09:31 71.18405 119.66068 36894 ft 510 kts 116°
2026-05-05 09:32 71.15224 119.85663 36894 ft 509 kts 116°
2026-05-05 09:32 71.12026 120.05196 36896 ft 509 kts 116°
2026-05-05 09:33 71.08812 120.24628 36902 ft 508 kts 116°
2026-05-05 09:33 71.05564 120.43967 36907 ft 508 kts 117°
2026-05-05 09:34 71.02272 120.63189 36901 ft 508 kts 117°
2026-05-05 09:34 70.98968 120.82337 36909 ft 508 kts 117°
2026-05-05 09:35 70.96210 120.98214 36907 ft 507 kts 117°
2026-05-05 09:35 70.91206 121.26741 36908 ft 507 kts 117°
2026-05-05 09:36 70.87844 121.45689 36914 ft 508 kts 117°
2026-05-05 09:36 70.84461 121.64579 36912 ft 508 kts 118°
2026-05-05 09:37 70.81057 121.83396 36914 ft 508 kts 118°
2026-05-05 09:37 70.77636 122.02151 36907 ft 508 kts 118°
2026-05-05 09:38 70.74203 122.20841 36912 ft 508 kts 118°
2026-05-05 09:38 70.70744 122.39462 36908 ft 508 kts 118°
2026-05-05 09:39 70.67252 122.57992 36920 ft 507 kts 119°
2026-05-05 09:39 70.63741 122.76459 36913 ft 507 kts 119°
2026-05-05 09:40 70.60220 122.94832 36923 ft 506 kts 119°
2026-05-05 09:40 70.56684 123.13158 36919 ft 506 kts 119°
2026-05-05 09:41 70.53130 123.31410 36922 ft 507 kts 120°
2026-05-05 09:41 70.49555 123.49609 36921 ft 507 kts 120°
2026-05-05 09:42 70.45988 123.67831 36916 ft 508 kts 119°
2026-05-05 09:42 70.42430 123.86029 36925 ft 507 kts 120°
2026-05-05 09:43 70.38850 124.04168 36926 ft 508 kts 120°
2026-05-05 09:43 70.35244 124.22240 36926 ft 508 kts 120°
2026-05-05 09:44 70.31620 124.40260 36916 ft 508 kts 120°
2026-05-05 09:44 70.27981 124.58183 36921 ft 508 kts 120°
2026-05-05 09:45 70.24324 124.76064 36914 ft 507 kts 120°
2026-05-05 09:45 70.20655 124.93859 36913 ft 507 kts 121°
2026-05-05 09:46 70.16966 125.11595 36919 ft 507 kts 121°
2026-05-05 09:46 70.13264 125.29247 36913 ft 507 kts 121°
2026-05-05 09:47 70.09546 125.46828 36913 ft 506 kts 121°
2026-05-05 09:47 70.05809 125.64357 36910 ft 507 kts 121°
2026-05-05 09:48 70.02084 125.81680 36912 ft 506 kts 122°
2026-05-05 09:48 69.98316 125.99064 36917 ft 506 kts 122°
2026-05-05 09:49 69.94512 126.16493 36907 ft 506 kts 122°
2026-05-05 09:49 69.90743 126.33628 36902 ft 505 kts 122°
2026-05-05 09:50 69.86932 126.50764 36902 ft 505 kts 122°
2026-05-05 09:50 69.83073 126.67787 36898 ft 505 kts 123°
2026-05-05 09:51 69.79202 126.84711 36901 ft 504 kts 123°
2026-05-05 09:51 69.75316 127.01597 36885 ft 504 kts 123°
2026-05-05 09:52 69.71416 127.18419 36890 ft 504 kts 123°
2026-05-05 09:52 69.67481 127.35277 36874 ft 504 kts 123°
2026-05-05 09:53 69.63553 127.51962 36875 ft 504 kts 123°
2026-05-05 09:53 69.59609 127.68585 36871 ft 504 kts 124°
2026-05-05 09:54 69.55678 127.85028 36863 ft 504 kts 124°
2026-05-05 09:54 69.51708 128.01512 36861 ft 503 kts 124°
2026-05-05 09:55 69.47731 128.17910 36863 ft 502 kts 124°
2026-05-05 09:55 69.43736 128.34244 36866 ft 502 kts 124°
2026-05-05 09:56 69.39727 128.50518 36869 ft 502 kts 125°
2026-05-05 09:56 69.35706 128.66716 36877 ft 502 kts 125°
2026-05-05 09:57 69.31671 128.82859 36875 ft 502 kts 125°
2026-05-05 09:57 69.27625 128.98940 36891 ft 502 kts 125°
2026-05-05 09:58 69.23575 129.14987 36892 ft 502 kts 125°
2026-05-05 09:58 69.19538 129.31017 36907 ft 502 kts 126°
2026-05-05 09:59 69.15490 129.46968 36905 ft 501 kts 126°
2026-05-05 09:59 69.11432 129.62846 36914 ft 500 kts 126°
2026-05-05 10:00 69.07362 129.78632 36917 ft 500 kts 126°
2026-05-05 10:00 69.03279 129.94354 36933 ft 500 kts 126°
2026-05-05 10:01 68.99186 130.10001 36937 ft 499 kts 127°
2026-05-05 10:01 68.95080 130.25588 36946 ft 499 kts 127°
2026-05-05 10:02 68.90961 130.41100 36946 ft 499 kts 127°
2026-05-05 10:02 68.86834 130.56552 36951 ft 498 kts 127°
2026-05-05 10:03 68.82697 130.71942 36956 ft 498 kts 127°
2026-05-05 10:03 68.78547 130.87255 36956 ft 498 kts 128°
2026-05-05 10:04 68.74384 131.02506 36952 ft 497 kts 128°
2026-05-05 10:04 68.70212 131.17679 36941 ft 497 kts 128°
2026-05-05 10:05 68.66031 131.32782 36943 ft 496 kts 128°
2026-05-05 10:05 68.61842 131.47817 36932 ft 496 kts 128°
2026-05-05 10:06 68.57658 131.62712 36934 ft 497 kts 128°
2026-05-05 10:06 68.53408 131.77762 36912 ft 497 kts 128°
2026-05-05 10:07 68.49200 131.92554 36915 ft 497 kts 129°
2026-05-05 10:07 68.44951 132.07389 36917 ft 497 kts 129°
2026-05-05 10:08 68.40685 132.22179 36913 ft 497 kts 129°
2026-05-05 10:08 68.36407 132.36906 36893 ft 497 kts 129°
2026-05-05 10:09 68.32120 132.51558 36903 ft 496 kts 130°
2026-05-05 10:09 68.27826 132.66154 36890 ft 496 kts 130°
2026-05-05 10:10 68.23521 132.80681 36889 ft 496 kts 130°
2026-05-05 10:10 68.19203 132.95159 36888 ft 496 kts 130°
2026-05-05 10:11 68.14879 133.09567 36882 ft 495 kts 130°
2026-05-05 10:11 68.10543 133.23917 36868 ft 495 kts 131°
2026-05-05 10:12 68.06134 133.38062 36869 ft 494 kts 132°
2026-05-05 10:12 68.01692 133.52063 36861 ft 494 kts 131°
2026-05-05 10:13 67.97253 133.66050 36863 ft 494 kts 132°
2026-05-05 10:13 67.92825 133.80023 36848 ft 494 kts 131°
2026-05-05 10:14 67.88449 133.94067 36859 ft 493 kts 131°
2026-05-05 10:14 67.84071 134.08063 36851 ft 493 kts 131°
2026-05-05 10:15 67.79668 134.22000 36846 ft 493 kts 131°
2026-05-05 10:15 67.75260 134.35851 36850 ft 493 kts 132°
2026-05-05 10:16 67.70840 134.49650 36837 ft 492 kts 132°
2026-05-05 10:16 67.66417 134.63388 36836 ft 492 kts 132°
2026-05-05 10:17 67.62026 134.77146 36842 ft 492 kts 131°
2026-05-05 10:17 67.58462 134.88765 36829 ft 492 kts 130°
2026-05-05 10:18 67.54183 135.02738 36832 ft 492 kts 131°
2026-05-05 10:18 67.49177 135.18872 36813 ft 491 kts 131°
2026-05-05 10:19 67.45557 135.30420 36829 ft 491 kts 131°
2026-05-05 10:19 67.41226 135.44149 36811 ft 490 kts 131°
2026-05-05 10:20 67.36917 135.57714 36810 ft 489 kts 131°
2026-05-05 10:20 67.32579 135.71307 36815 ft 489 kts 132°
2026-05-05 10:21 67.28227 135.84850 36803 ft 489 kts 132°
2026-05-05 10:21 67.23869 135.98335 36808 ft 488 kts 132°
2026-05-05 10:22 67.19510 136.11746 36814 ft 488 kts 132°
2026-05-05 10:22 67.15164 136.25168 36811 ft 488 kts 132°
2026-05-05 10:23 67.10843 136.38593 36809 ft 487 kts 132°
2026-05-05 10:23 67.06510 136.51957 36784 ft 487 kts 132°
2026-05-05 10:24 67.02170 136.65250 36797 ft 486 kts 132°
2026-05-05 10:24 66.97818 136.78480 36804 ft 486 kts 133°
2026-05-05 10:25 66.93459 136.91665 36791 ft 486 kts 133°
2026-05-05 10:25 66.89090 137.04793 36784 ft 485 kts 133°
2026-05-05 10:26 66.84714 137.17869 36775 ft 485 kts 133°
2026-05-05 10:26 66.80337 137.30873 36776 ft 484 kts 133°
2026-05-05 10:27 66.75954 137.43819 36776 ft 483 kts 133°
2026-05-05 10:27 66.71565 137.56699 36776 ft 483 kts 133°
2026-05-05 10:28 66.67176 137.69537 36774 ft 482 kts 133°
2026-05-05 10:28 66.62789 137.82319 36750 ft 482 kts 133°
2026-05-05 10:29 66.58394 137.95052 36759 ft 481 kts 133°
2026-05-05 10:29 66.53997 138.07702 36760 ft 481 kts 134°
2026-05-05 10:30 66.49587 138.20321 36765 ft 481 kts 134°
2026-05-05 10:30 66.45172 138.32882 36747 ft 481 kts 134°
2026-05-05 10:31 66.40739 138.45417 36746 ft 481 kts 134°
2026-05-05 10:31 66.36302 138.57903 36726 ft 481 kts 134°
2026-05-05 10:32 66.31881 138.70260 36727 ft 481 kts 134°
2026-05-05 10:32 66.27420 138.82670 36728 ft 481 kts 134°
2026-05-05 10:33 66.22946 138.95034 36728 ft 482 kts 134°
2026-05-05 10:33 66.18460 139.07380 36672 ft 482 kts 134°
2026-05-05 10:34 66.13968 139.19626 36702 ft 480 kts 135°
2026-05-05 10:34 66.09456 139.31721 36695 ft 479 kts 135°
2026-05-05 10:35 66.04936 139.43739 36692 ft 478 kts 135°
2026-05-05 10:35 66.00426 139.55691 36692 ft 477 kts 135°
2026-05-05 10:36 65.95906 139.67613 36673 ft 476 kts 135°
2026-05-05 10:36 65.91392 139.79459 36701 ft 475 kts 135°
2026-05-05 10:37 65.86867 139.91265 36689 ft 475 kts 135°
2026-05-05 10:37 65.82335 140.03024 36684 ft 475 kts 135°
2026-05-05 10:38 65.77804 140.14718 36699 ft 474 kts 135°
2026-05-05 10:38 65.73264 140.26367 36677 ft 474 kts 136°
2026-05-05 10:39 65.68718 140.37976 36700 ft 474 kts 136°
2026-05-05 10:39 65.64170 140.49522 36695 ft 473 kts 136°
2026-05-05 10:40 65.59620 140.61005 36716 ft 473 kts 136°
2026-05-05 10:40 65.55060 140.72454 36720 ft 473 kts 136°
2026-05-05 10:41 65.50485 140.83882 36714 ft 474 kts 136°
2026-05-05 10:41 65.45907 140.95265 36713 ft 473 kts 136°
2026-05-05 10:42 65.39028 141.12235 36720 ft 472 kts 136°
2026-05-05 10:43 65.34467 141.23421 36715 ft 472 kts 136°
2026-05-05 10:43 65.29873 141.34633 36714 ft 471 kts 136°
2026-05-05 10:44 65.25279 141.45796 36708 ft 471 kts 136°
2026-05-05 10:44 65.20684 141.56919 36715 ft 471 kts 136°
2026-05-05 10:45 65.16080 141.68015 36715 ft 471 kts 136°
2026-05-05 10:45 65.11467 141.79068 36708 ft 471 kts 136°
2026-05-05 10:46 65.06843 141.90097 36712 ft 471 kts 137°
2026-05-05 10:46 65.02215 142.01085 36703 ft 471 kts 137°
2026-05-05 10:47 64.97585 142.12012 36698 ft 470 kts 137°
2026-05-05 10:47 64.92963 142.22892 36713 ft 469 kts 137°
2026-05-05 10:48 64.88339 142.33725 36722 ft 469 kts 137°
2026-05-05 10:48 64.83706 142.44533 36714 ft 469 kts 137°
2026-05-05 10:49 64.79060 142.55314 36699 ft 469 kts 137°
2026-05-05 10:49 64.74411 142.66045 36715 ft 469 kts 138°
2026-05-05 10:50 64.69758 142.76729 36717 ft 469 kts 138°
2026-05-05 10:50 64.65100 142.87372 36713 ft 469 kts 138°
2026-05-05 10:51 64.60431 142.97989 36718 ft 469 kts 138°
2026-05-05 10:51 64.55758 143.08564 36702 ft 468 kts 138°
2026-05-05 10:52 64.50902 143.18578 36716 ft 466 kts 142°
2026-05-05 10:52 64.45972 143.28319 36722 ft 465 kts 142°
2026-05-05 10:53 64.41045 143.38063 36708 ft 466 kts 142°
2026-05-05 10:53 64.36112 143.47796 36705 ft 466 kts 142°
2026-05-05 10:54 64.31174 143.57504 36702 ft 466 kts 142°
2026-05-05 10:54 64.26234 143.67155 36714 ft 465 kts 142°
2026-05-05 10:55 64.21325 143.76683 36723 ft 465 kts 142°
2026-05-05 10:55 64.16376 143.86226 36722 ft 464 kts 142°
2026-05-05 10:56 64.11438 143.95711 36726 ft 463 kts 142°
2026-05-05 10:56 64.06500 144.05160 36715 ft 463 kts 142°
2026-05-05 10:57 64.01565 144.14602 36722 ft 463 kts 142°
2026-05-05 10:57 63.96628 144.24030 36731 ft 464 kts 142°
2026-05-05 10:58 63.91673 144.33441 36719 ft 464 kts 142°
2026-05-05 10:58 63.86715 144.42821 36728 ft 464 kts 143°
2026-05-05 10:59 63.81753 144.52160 36710 ft 463 kts 143°
2026-05-05 10:59 63.76787 144.61458 36720 ft 463 kts 143°
2026-05-05 11:00 63.71820 144.70717 36713 ft 463 kts 143°
2026-05-05 11:00 63.66852 144.79933 36716 ft 462 kts 143°
2026-05-05 11:01 63.61885 144.89107 36713 ft 461 kts 143°
2026-05-05 11:01 63.56926 144.98223 36701 ft 460 kts 144°
2026-05-05 11:02 63.51973 145.07283 36699 ft 459 kts 144°
2026-05-05 11:02 63.47859 145.14781 36697 ft 458 kts 144°
2026-05-05 11:03 63.42905 145.23770 36687 ft 458 kts 144°
2026-05-05 11:03 63.37148 145.34166 36703 ft 458 kts 144°
2026-05-05 11:04 63.32997 145.41632 36673 ft 458 kts 144°
2026-05-05 11:04 63.28032 145.50480 36681 ft 457 kts 145°
2026-05-05 11:05 63.23059 145.59266 36685 ft 457 kts 145°
2026-05-05 11:05 63.18082 145.68033 36685 ft 457 kts 145°
2026-05-05 11:06 63.13104 145.76772 36681 ft 457 kts 145°
2026-05-05 11:06 63.08121 145.85483 36662 ft 457 kts 145°
2026-05-05 11:07 63.03135 145.94158 36675 ft 456 kts 145°
2026-05-05 11:07 62.98153 146.02788 36681 ft 455 kts 145°
2026-05-05 11:08 62.93163 146.11386 36682 ft 456 kts 145°
2026-05-05 11:08 62.88169 146.19962 36676 ft 455 kts 146°
2026-05-05 11:09 62.83183 146.28490 36648 ft 455 kts 146°
2026-05-05 11:09 62.78196 146.36985 36671 ft 454 kts 146°
2026-05-05 11:10 62.73211 146.45433 36664 ft 453 kts 146°
2026-05-05 11:10 62.68230 146.53849 36667 ft 453 kts 146°
2026-05-05 11:11 62.63243 146.62233 36668 ft 453 kts 146°
2026-05-05 11:11 62.58257 146.70599 36639 ft 453 kts 146°
2026-05-05 11:12 62.53276 146.78939 36649 ft 453 kts 146°
2026-05-05 11:12 62.48294 146.87246 36668 ft 452 kts 146°
2026-05-05 11:13 62.43311 146.95516 36661 ft 452 kts 146°
2026-05-05 11:13 62.38320 147.03756 36661 ft 452 kts 146°
2026-05-05 11:14 62.33322 147.11976 36640 ft 452 kts 146°
2026-05-05 11:14 62.28326 147.20166 36655 ft 451 kts 146°
2026-05-05 11:15 62.23320 147.28319 36646 ft 452 kts 146°
2026-05-05 11:15 62.18353 147.36392 36659 ft 451 kts 146°
2026-05-05 11:16 62.13314 147.44535 36642 ft 451 kts 146°
2026-05-05 11:16 62.08341 147.52540 36637 ft 450 kts 146°
2026-05-05 11:17 62.03340 147.60558 36643 ft 450 kts 146°
2026-05-05 11:17 61.98344 147.68536 36644 ft 449 kts 146°
2026-05-05 11:18 61.93349 147.76480 36638 ft 448 kts 146°
2026-05-05 11:18 61.88323 147.84434 36645 ft 447 kts 146°
2026-05-05 11:19 61.83329 147.92308 36635 ft 448 kts 146°
2026-05-05 11:19 61.78326 148.00164 36645 ft 448 kts 146°
2026-05-05 11:20 61.73318 148.07995 36638 ft 448 kts 146°
2026-05-05 11:20 61.68307 148.15799 36647 ft 448 kts 146°
2026-05-05 11:21 61.63290 148.23578 36638 ft 448 kts 146°
2026-05-05 11:21 61.58266 148.31340 36638 ft 448 kts 146°
2026-05-05 11:22 61.53243 148.39072 36621 ft 448 kts 146°
2026-05-05 11:22 61.48214 148.46758 36630 ft 447 kts 147°
2026-05-05 11:23 61.43170 148.54402 36638 ft 449 kts 147°
2026-05-05 11:23 61.38110 148.62044 36623 ft 449 kts 147°
2026-05-05 11:24 61.34395 148.67639 36615 ft 448 kts 146°
2026-05-05 11:28 61.34251 148.67855 36610 ft 448 kts 146°
2026-05-05 11:29 61.29206 148.75429 36619 ft 447 kts 146°
2026-05-05 11:29 61.24165 148.82969 36612 ft 446 kts 147°
2026-05-05 11:30 61.19122 148.90480 36204 ft 452 kts 147°
2026-05-05 11:30 61.16544 148.94306 35502 ft 455 kts 147°
2026-05-05 11:30 61.13973 148.98118 34694 ft 454 kts 147°
2026-05-05 11:30 61.11441 149.01865 33881 ft 453 kts 147°
2026-05-05 11:31 61.08845 149.05695 32949 ft 452 kts 146°
2026-05-05 11:31 61.06290 149.09462 31983 ft 451 kts 146°
2026-05-05 11:31 61.03733 149.13221 31013 ft 451 kts 146°
2026-05-05 11:31 61.01179 149.16968 30081 ft 450 kts 146°
2026-05-05 11:32 60.98643 149.20686 29371 ft 444 kts 145°
2026-05-05 11:32 60.96148 149.24365 28579 ft 439 kts 145°
2026-05-05 11:32 60.93681 149.27966 27919 ft 430 kts 146°
2026-05-05 11:32 60.91247 149.31498 27274 ft 426 kts 146°
2026-05-05 11:33 60.88839 149.35003 26626 ft 423 kts 146°
2026-05-05 11:33 60.86448 149.38477 25982 ft 420 kts 146°
2026-05-05 11:33 60.84068 149.41921 25331 ft 417 kts 145°
2026-05-05 11:33 60.81716 149.45321 24704 ft 411 kts 145°
2026-05-05 11:34 60.79394 149.48666 24101 ft 407 kts 145°
2026-05-05 11:34 60.77091 149.51990 23516 ft 404 kts 145°
2026-05-05 11:34 60.74798 149.55283 22857 ft 402 kts 144°
2026-05-05 11:34 60.72519 149.58560 22178 ft 399 kts 145°
2026-05-05 11:35 60.70257 149.61798 21568 ft 396 kts 145°
2026-05-05 11:35 60.68014 149.65010 20972 ft 393 kts 145°
2026-05-05 11:35 60.65811 149.68158 20401 ft 390 kts 145°
2026-05-05 11:35 60.63596 149.71317 19823 ft 387 kts 145°
2026-05-05 11:36 60.61399 149.74440 19256 ft 384 kts 145°
2026-05-05 11:36 60.59211 149.77552 18685 ft 383 kts 144°
2026-05-05 11:36 60.57025 149.80647 18131 ft 382 kts 144°
2026-05-05 11:36 60.54849 149.83725 17513 ft 382 kts 144°
2026-05-05 11:37 60.52676 149.86804 16897 ft 379 kts 144°
2026-05-05 11:37 60.50515 149.89846 16298 ft 376 kts 144°
2026-05-05 11:37 60.48386 149.92863 15729 ft 371 kts 144°
2026-05-05 11:37 60.46275 149.95835 15179 ft 370 kts 144°
2026-05-05 11:38 60.44173 149.98814 14612 ft 364 kts 144°
2026-05-05 11:38 60.41950 150.01156 14126 ft 361 kts 157°
2026-05-05 11:38 60.39569 150.02798 13640 ft 362 kts 159°
2026-05-05 11:38 60.37184 150.04454 13147 ft 364 kts 158°
2026-05-05 11:39 60.34797 150.06153 12608 ft 362 kts 157°
2026-05-05 11:39 60.32441 150.07870 12090 ft 359 kts 157°
2026-05-05 11:39 60.30115 150.09584 11591 ft 353 kts 157°
2026-05-05 11:39 60.27826 150.11284 11108 ft 349 kts 157°
2026-05-05 11:40 60.25558 150.12959 10645 ft 345 kts 157°
2026-05-05 11:40 60.23311 150.14611 10158 ft 342 kts 157°
2026-05-05 11:40 60.21087 150.16245 9699 ft 339 kts 157°
2026-05-05 11:40 60.18884 150.17862 9283 ft 334 kts 157°
2026-05-05 11:41 60.16718 150.19448 8939 ft 328 kts 157°
2026-05-05 11:41 60.14600 150.20998 8738 ft 318 kts 156°
2026-05-05 11:41 60.12566 150.22478 8640 ft 305 kts 156°
2026-05-05 11:41 60.10611 150.23904 8522 ft 293 kts 156°
2026-05-05 11:42 60.08736 150.25270 8419 ft 281 kts 156°
2026-05-05 11:42 60.06931 150.26583 8329 ft 271 kts 156°
2026-05-05 11:42 60.05198 150.27851 8271 ft 260 kts 155°
2026-05-05 11:42 60.03537 150.29054 7998 ft 247 kts 155°
2026-05-05 11:43 60.01901 150.30034 7288 ft 250 kts 167°
2026-05-05 11:43 60.00136 150.29980 6562 ft 255 kts 176°
2026-05-05 11:43 59.98380 150.29732 5904 ft 251 kts 175°
2026-05-05 11:43 59.96673 150.29535 5454 ft 240 kts 174°
2026-05-05 11:44 59.95039 150.29380 5094 ft 229 kts 171°
2026-05-05 11:44 59.94027 150.29606 4860 ft 214 kts 152°
2026-05-05 11:44 59.92914 150.31146 4518 ft 184 kts 115°
2026-05-05 11:44 59.92530 150.33408 4245 ft 169 kts 98°
2026-05-05 11:45 59.92309 150.35759 4015 ft 175 kts 97°
2026-05-05 11:45 59.92093 150.38174 3724 ft 177 kts 95°
2026-05-05 11:45 59.91954 150.40542 3455 ft 166 kts 91°
2026-05-05 11:45 59.91875 150.42800 3270 ft 161 kts 90°
2026-05-05 11:46 59.91812 150.44980 3030 ft 153 kts 89°
2026-05-05 11:46 59.91755 150.47052 2811 ft 145 kts 89°
2026-05-05 11:46 59.91704 150.48987 2614 ft 134 kts 89°
2026-05-05 11:46 59.91657 150.50780 2456 ft 129 kts 88°
2026-05-05 11:47 59.91610 150.52592 2258 ft 133 kts 89°
2026-05-05 11:47 59.91562 150.54468 2047 ft 139 kts 90°
2026-05-05 11:47 59.91510 150.56410 1840 ft 141 kts 90°
2026-05-05 11:47 59.91458 150.58388 1626 ft 144 kts 92°
2026-05-05 11:48 59.91349 150.62427 1244 ft 148 kts 93°
2026-05-05 11:48 59.91295 150.64467 1041 ft 147 kts 93°
2026-05-05 11:48 59.91241 150.66487 842 ft 145 kts 92°
2026-05-05 11:49 59.91191 150.68476 642 ft 142 kts 92°
2026-05-05 11:49 59.91141 150.70387 587 ft 128 kts 93°
2026-05-05 11:49 59.91101 150.71914 590 ft 92 kts 93°
2026-05-05 11:49 59.91080 150.72718 589 ft 32 kts 93°
2026-05-05 11:50 59.91142 150.73068 588 ft 17 kts 52°